TimeCDT,TemperatureF,Dew PointF,Humidity,Sea Level PressureIn,VisibilityMPH,Wind Direction,Wind SpeedMPH,Gust SpeedMPH,PrecipitationIn,Events,Conditions,WindDirDegrees,DateUTC
12:53 AM,46.9,28.0,48,30.16,10.0,ENE,10.4,-,N/A,,Clear,60,2013-04-03 05:53:00
1:53 AM,46.0,28.9,51,30.15,10.0,ENE,12.7,-,N/A,,Clear,60,2013-04-03 06:53:00
2:53 AM,45.0,28.9,53,30.14,10.0,NE,11.5,18.4,N/A,,Partly Cloudy,50,2013-04-03 07:53:00
3:53 AM,46.0,28.0,50,30.13,10.0,ENE,11.5,-,N/A,,Mostly Cloudy,70,2013-04-03 08:53:00
4:53 AM,46.0,28.0,50,30.16,10.0,ENE,10.4,-,N/A,,Overcast,60,2013-04-03 09:53:00
5:53 AM,46.0,26.1,46,30.16,10.0,ENE,11.5,-,N/A,,Overcast,60,2013-04-03 10:53:00
6:53 AM,44.1,28.0,53,30.17,10.0,ENE,11.5,-,0.00,,Overcast,60,2013-04-03 11:53:00
7:53 AM,45.0,26.1,48,30.19,10.0,ENE,10.4,-,0.00,,Overcast,70,2013-04-03 12:53:00
8:53 AM,46.0,26.1,46,30.19,10.0,ENE,11.5,-,N/A,,Overcast,70,2013-04-03 13:53:00
9:53 AM,46.0,26.1,46,30.19,10.0,East,10.4,-,N/A,,Overcast,80,2013-04-03 14:53:00
10:53 AM,46.9,30.0,52,30.19,10.0,ENE,9.2,-,0.00,Rain,Light Rain,70,2013-04-03 15:53:00
11:53 AM,48.0,32.0,54,30.18,10.0,East,5.8,-,0.00,Rain,Light Rain,90,2013-04-03 16:53:00
12:53 PM,46.9,35.1,63,30.20,10.0,East,8.1,-,0.01,Rain,Light Rain,80,2013-04-03 17:53:00
1:53 PM,45.0,39.0,80,30.19,7.0,ENE,10.4,-,0.04,Rain,Light Rain,60,2013-04-03 18:53:00
2:53 PM,44.1,39.0,82,30.18,8.0,ENE,13.8,-,0.08,Rain,Light Rain,60,2013-04-03 19:53:00
3:53 PM,44.1,39.9,85,30.16,6.0,NE,12.7,-,0.06,Rain,Rain,50,2013-04-03 20:53:00
4:53 PM,44.1,39.9,85,30.16,6.0,ENE,11.5,-,0.05,Rain,Light Rain,60,2013-04-03 21:53:00
5:53 PM,44.1,39.9,85,30.14,9.0,East,11.5,-,0.06,Rain,Light Rain,80,2013-04-03 22:53:00
6:53 PM,44.1,39.9,85,30.12,10.0,East,9.2,-,0.02,Rain,Light Rain,80,2013-04-03 23:53:00
7:53 PM,44.1,39.9,85,30.10,10.0,ENE,9.2,-,0.01,Rain,Light Rain,60,2013-04-04 00:53:00
8:53 PM,45.0,41.0,86,30.11,10.0,NE,4.6,-,N/A,,Overcast,50,2013-04-04 01:53:00
9:02 PM,44.6,41.0,87,30.13,10.0,Calm,Calm,-,N/A,,Overcast,0,2013-04-04 02:02:00
9:53 PM,45.0,41.0,86,30.14,10.0,ENE,3.5,-,N/A,,Overcast,70,2013-04-04 02:53:00
10:53 PM,46.0,42.1,86,30.14,10.0,Calm,Calm,-,N/A,,Overcast,0,2013-04-04 03:53:00
11:53 PM,46.0,42.1,86,30.12,10.0,NE,5.8,-,N/A,,Overcast,50,2013-04-04 04:53:00